Wind_Speed
98 98 87 83 82 82 77 79 74 70 65 63 62 58 55 54 53 55 56 57 60 57 53 51 50 50 47 46 47 50 51 49 47 48 49 49 49 51 50 49 51 50 48 48
92 94 92 94 91 86 84 82 81 78 67 60 61 57 57 54 58 58 58 60 57 54 46 46 47 48 47 49 49 50 48 49 50 52 53 54 54 53 57 55 54 53 57 57
85 90 98 97 94 87 86 86 81 77 74 66 62 61 59 59 62 62 62 59 58 55 53 53 53 52 51 50 51 51 52 53 54 56 56 58 58 61 63 66 64 64 67 69
81 89 98 100 97 92 85 84 86 84 79 72 67 65 66 66 63 63 65 66 64 58 57 56 58 56 52 53 57 59 59 59 60 61 62 63 66 67 69 71 74 76 78 80
79 86 96 97 93 94 87 89 85 85 86 82 77 73 63 63 62 65 67 69 69 64 62 61 60 57 57 58 60 61 64 64 65 66 68 72 75 75 75 78 81 83 87 89
82 85 92 96 96 94 93 96 94 93 91 91 76 76 69 67 71 70 66 70 70 64 59 61 64 64 64 63 64 65 66 69 71 73 75 78 81 83 85 87 89 90 89 88
88 85 86 94 98 100 98 100 99 97 93 78 78 76 69 67 67 69 69 72 70 71 69 65 66 68 69 69 69 70 72 73 76 76 78 81 83 85 87 89 91 91 92 95
89 86 84 90 97 102 99 94 96 92 84 84 85 71 68 68 69 68 72 73 74 75 72 72 73 74 74 75 76 76 75 76 78 80 82 85 84 88 91 92 92 95 100 103
87 90 92 92 99 102 105 102 86 92 95 95 89 78 77 72 67 70 77 78 76 77 79 76 73 75 74 74 75 75 77 77 80 84 86 89 91 94 91 95 102 101 109 105
90 93 94 97 102 104 105 105 106 97 96 91 85 82 77 77 76 79 83 76 74 74 74 74 76 75 75 75 76 78 79 81 82 86 88 91 94 95 101 103 104 104 97 97
91 93 94 97 101 100 101 105 103 101 96 94 90 82 77 78 80 84 82 81 82 83 81 77 79 78 78 77 76 78 81 85 89 90 93 96 98 100 103 99 97 95 91 88
87 91 94 95 98 100 100 102 101 100 93 92 89 85 85 85 85 82 79 78 79 79 79 81 80 78 78 78 82 87 87 88 89 93 96 96 96 95 94 92 91 86 84 85
86 88 92 94 96 98 98 100 100 98 98 94 92 85 86 87 86 86 85 86 84 80 77 77 80 83 83 84 83 83 86 90 92 92 92 91 88 89 85 84 80 82 84 82
87 90 89 88 90 93 92 94 95 98 97 90 89 90 86 85 86 85 86 85 82 80 79 79 79 81 83 84 86 87 88 90 88 87 83 80 78 79 78 77 81 80 77 73
87 85 88 89 92 94 96 98 98 95 89 92 86 86 88 89 88 87 84 81 79 78 79 80 84 85 84 85 88 87 85 84 80 77 75 74 72 73 74 79 77 73 71 66
87 86 87 90 92 93 94 96 95 92 94 91 87 84 79 78 77 75 76 79 80 81 83 86 88 88 85 85 83 79 77 75 72 71 69 67 69 71 76 74 68 67 66 62
86 87 90 89 91 93 97 88 89 89 87 83 85 80 85 82 79 79 84 87 84 80 79 83 84 83 83 78 73 73 70 67 66 64 63 64 67 72 67 62 61 61 59 57
86 87 87 90 95 99 76 88 85 84 86 85 83 84 84 83 83 83 80 77 76 78 80 79 79 78 70 66 66 66 64 61 60 59 60 63 63 58 57 57 55 54 53 53
86 90 92 92 90 83 84 81 78 78 74 75 74 76 75 75 73 72 70 74 77 76 73 71 70 66 63 63 64 62 60 57 54 54 57 54 52 51 50 49 51 54 57 60
88 91 93 91 87 79 72 78 83 85 76 72 72 69 69 69 67 69 77 75 71 68 67 65 63 62 62 63 62 59 55 52 50 51 47 45 44 45 45 48 51 53 57 60
88 88 88 80 79 74 76 81 88 81 58 73 71 69 68 66 68 81 71 67 67 66 65 64 63 62 62 59 57 55 52 51 48 49 47 45 45 44 47 50 54 58 63 65
88 87 82 78 75 70 73 80 78 65 71 75 74 71 71 73 74 71 69 70 68 67 65 63 61 60 58 56 55 52 53 52 49 48 47 46 48 48 51 54 57 60 65 70
97 89 76 74 65 65 68 72 74 74 77 76 74 75 76 73 73 72 72 69 67 66 64 61 60 58 56 55 53 53 52 52 50 48 49 49 50 52 55 58 59 64 68 73
97 93 86 74 68 71 73 76 75 73 73 74 74 74 72 72 74 73 70 68 67 64 61 60 58 57 55 53 53 53 51 52 51 50 51 51 53 56 59 61 63 67 72 77
103 100 88 72 73 75 73 72 73 73 74 72 71 71 72 71 70 69 68 66 64 62 60 57 57 56 54 52 52 52 51 52 52 52 51 52 55 58 62 63 67 69 76 79
102 96 87 61 68 72 75 76 76 73 70 69 71 70 69 68 67 65 63 62 62 61 56 55 57 55 53 52 53 52 51 53 54 52 52 55 58 62 65 68 69 75 80 82
Wind_Direction
222 221 221 226 229 228 230 230 231 230 230 229 234 235 239 241 238 232 235 241 243 245 247 247 253 259 257 259 263 270 273 279 279 280 282 282 283 282 281 281 285 285 286 283
221 220 222 223 225 228 228 231 231 232 230 232 238 240 237 234 228 230 234 239 243 242 240 248 255 256 257 265 267 267 271 273 276 278 280 279 279 276 279 278 277 275 279 280
221 220 221 223 224 227 232 232 232 235 233 230 232 234 235 226 226 231 238 241 242 243 247 250 253 258 264 268 268 268 272 271 274 274 276 275 275 277 279 281 285 286 291 291
223 220 221 223 222 226 229 233 235 235 235 233 230 228 229 233 238 239 240 243 246 250 253 256 261 261 261 269 272 272 274 273 270 268 269 273 275 279 286 286 287 289 289 288
223 223 220 223 221 223 227 231 233 234 236 234 233 230 230 236 239 237 242 244 248 251 257 260 263 260 264 271 272 273 273 273 271 271 271 271 278 280 284 286 286 286 287 286
221 223 221 222 221 221 226 228 230 233 233 235 234 235 233 235 237 241 244 253 259 261 261 261 262 262 265 272 274 274 274 272 271 275 280 281 282 283 284 285 286 287 288 288
219 222 220 222 223 221 223 229 232 234 237 238 238 238 240 241 241 245 251 255 256 258 260 263 261 262 268 269 273 274 274 275 278 282 283 284 286 286 286 287 290 291 290 291
221 221 220 221 221 223 222 228 234 236 237 238 239 235 237 243 246 248 250 252 254 257 258 259 261 266 270 274 276 278 280 280 280 281 285 287 288 291 292 293 295 296 294 293
219 219 220 218 219 220 222 224 225 232 231 232 232 233 237 241 248 252 252 252 256 258 261 261 265 269 271 274 276 278 280 282 283 285 288 289 289 292 293 294 297 295 296 295
215 217 219 218 218 218 221 222 224 227 234 236 236 239 243 247 247 248 251 254 254 256 260 265 268 270 272 274 276 277 279 282 283 283 285 286 290 290 292 295 296 296 295 295
214 216 217 220 219 218 219 223 225 229 232 234 234 237 237 240 242 246 251 253 255 257 263 270 271 272 273 273 275 277 278 280 282 285 287 289 291 293 295 296 297 294 295 295
214 217 217 219 220 219 218 221 224 226 227 232 235 236 237 240 244 249 253 256 259 262 264 266 266 266 269 270 271 278 281 282 284 286 288 290 292 294 294 295 295 296 296 296
212 216 217 220 220 222 221 223 223 227 230 232 231 232 236 239 242 245 247 251 255 259 259 258 261 264 268 273 275 277 279 281 284 287 290 292 293 293 293 295 298 298 298 297
217 216 217 220 222 223 225 225 225 226 228 230 231 232 233 236 239 243 246 249 252 255 258 259 260 263 267 272 275 278 280 283 286 288 291 291 291 293 295 297 299 299 298 299
217 219 219 219 221 224 224 224 225 224 226 229 231 233 234 236 238 241 245 250 252 252 254 256 260 264 269 274 276 280 281 285 287 289 290 290 292 294 297 299 299 299 301 303
219 218 219 221 222 224 225 226 228 231 231 231 233 234 235 238 242 244 244 246 249 252 256 261 265 268 271 274 278 280 281 284 287 287 289 291 292 295 297 299 300 302 304 305
223 221 222 219 222 224 225 228 230 230 231 233 235 235 237 238 241 244 247 250 255 258 258 261 265 267 271 274 276 278 281 284 286 287 288 292 295 296 298 300 301 304 307 308
221 222 225 223 223 224 224 230 230 229 230 232 233 236 238 240 242 246 250 252 252 253 256 260 264 269 272 274 276 278 281 282 283 287 291 294 297 297 299 301 303 307 309 309
220 223 222 225 227 225 225 230 234 236 236 235 236 238 241 243 245 248 251 251 253 257 261 265 266 269 271 274 276 277 278 280 284 289 295 297 300 303 305 307 309 309 309 309
221 223 223 223 225 227 227 230 233 235 234 239 241 242 244 246 248 250 250 253 256 260 262 264 266 269 272 271 272 274 277 278 283 291 295 299 304 307 310 313 314 315 316 315
221 223 226 223 225 225 228 232 235 236 237 240 241 243 245 247 246 246 251 256 257 259 260 262 264 266 268 271 272 275 274 276 282 288 292 298 302 308 313 315 317 318 319 319
222 224 224 223 223 222 228 234 237 239 237 239 238 239 240 241 245 248 251 253 255 257 259 262 265 268 269 270 271 272 271 274 280 286 291 296 298 304 312 316 318 319 321 323
220 224 221 223 221 219 225 230 231 231 233 236 237 238 240 242 246 248 249 252 254 256 259 262 265 265 266 268 268 270 269 274 280 285 292 298 301 307 311 314 316 319 323 326
217 220 219 216 217 218 221 223 224 227 230 233 234 236 240 243 245 247 249 251 253 256 259 261 261 262 265 267 267 267 269 275 283 285 293 299 303 307 310 313 314 319 322 324
213 217 216 209 212 217 220 225 229 229 231 233 234 236 237 240 244 247 249 251 253 255 256 257 258 262 264 266 267 265 269 275 279 286 292 299 304 307 309 311 315 318 322 324
214 220 218 206 212 216 218 221 225 228 231 234 236 236 237 238 241 244 247 249 250 251 252 255 259 261 263 265 265 267 269 274 277 284 291 297 301 307 309 312 315 319 322 323
Height
10644 10658 10682 10692 10696 10701 10709 10713 10717 10726 10740 10752 10761 10770 10772 10775 10778 10780 10781 10784 10789 10795 10801 10805 10809 10812 10815 10817 10816 10815 10813 10811 10811 10812 10813 10814 10816 10815 10814 10814 10813 10812 10812 10812
10631 10656 10662 10664 10674 10681 10691 10697 10705 10713 10731 10744 10753 10760 10764 10766 10768 10770 10772 10775 10779 10783 10789 10794 10797 10800 10803 10806 10807 10807 10806 10803 10802 10802 10802 10801 10801 10800 10799 10802 10803 10803 10801 10800
10619 10636 10639 10646 10659 10672 10680 10691 10703 10706 10717 10727 10738 10746 10753 10756 10759 10763 10764 10764 10766 10774 10781 10784 10786 10788 10791 10793 10794 10795 10796 10796 10795 10792 10792 10792 10791 10790 10789 10788 10787 10787 10786 10786
10605 10612 10623 10630 10648 10659 10671 10680 10686 10692 10704 10716 10719 10731 10740 10746 10752 10756 10756 10753 10754 10766 10769 10772 10774 10777 10779 10780 10781 10782 10783 10785 10785 10784 10783 10782 10780 10778 10776 10774 10772 10771 10769 10768
10593 10595 10606 10617 10643 10647 10662 10659 10670 10678 10681 10689 10699 10718 10735 10739 10748 10746 10743 10741 10742 10754 10759 10761 10763 10765 10766 10767 10768 10769 10770 10770 10769 10770 10770 10769 10767 10765 10762 10759 10756 10754 10752 10748
10572 10580 10594 10608 10617 10634 10636 10636 10646 10652 10661 10670 10697 10709 10721 10731 10727 10731 10735 10732 10736 10741 10745 10749 10750 10750 10751 10754 10756 10756 10757 10755 10755 10754 10753 10751 10748 10747 10745 10741 10738 10735 10731 10727
10556 10566 10583 10592 10599 10612 10613 10614 10630 10639 10659 10689 10685 10694 10715 10716 10722 10720 10722 10721 10727 10727 10731 10734 10736 10737 10739 10741 10743 10743 10742 10742 10740 10738 10736 10734 10731 10728 10725 10722 10718 10713 10708 10703
10540 10550 10566 10577 10582 10595 10607 10608 10627 10648 10660 10669 10663 10688 10701 10701 10704 10711 10711 10709 10713 10715 10719 10721 10723 10725 10726 10726 10726 10726 10726 10726 10725 10723 10720 10716 10711 10708 10703 10699 10693 10686 10680 10673
10522 10533 10541 10549 10556 10568 10587 10596 10612 10616 10629 10631 10651 10675 10680 10689 10695 10697 10691 10691 10702 10705 10705 10706 10711 10711 10713 10712 10712 10712 10711 10709 10706 10704 10700 10695 10691 10688 10682 10677 10670 10660 10652 10643
10501 10512 10521 10527 10534 10549 10570 10577 10586 10601 10614 10631 10652 10664 10677 10682 10679 10671 10667 10686 10691 10686 10686 10690 10693 10697 10699 10698 10699 10698 10696 10694 10691 10688 10685 10681 10676 10670 10664 10656 10648 10638 10628 10619
10481 10495 10506 10511 10523 10541 10557 10565 10578 10588 10599 10617 10632 10655 10660 10657 10656 10654 10664 10668 10673 10675 10675 10675 10675 10680 10683 10682 10681 10681 10679 10677 10674 10671 10666 10662 10656 10649 10642 10634 10625 10616 10607 10598
10467 10478 10489 10500 10508 10520 10537 10548 10561 10568 10586 10603 10617 10633 10639 10643 10644 10649 10653 10653 10654 10661 10662 10659 10660 10663 10667 10668 10667 10667 10662 10659 10655 10653 10648 10643 10636 10629 10621 10613 10605 10596 10587 10578
10450 10464 10474 10482 10493 10507 10523 10537 10549 10560 10571 10589 10601 10619 10621 10627 10632 10634 10637 10638 10644 10650 10647 10645 10645 10646 10651 10654 10651 10650 10646 10641 10638 10634 10629 10623 10616 10609 10601 10593 10586 10577 10567 10557
10433 10446 10460 10476 10491 10494 10509 10520 10530 10541 10553 10571 10586 10599 10607 10610 10614 10617 10618 10624 10634 10636 10632 10630 10629 10630 10635 10636 10634 10633 10629 10625 10623 10618 10612 10606 10599 10592 10584 10577 10568 10559 10548 10539
10419 10434 10447 10457 10466 10474 10486 10492 10501 10519 10539 10547 10567 10577 10588 10592 10596 10600 10609 10618 10621 10619 10615 10616 10614 10618 10623 10618 10617 10616 10611 10609 10605 10599 10595 10590 10583 10575 10568 10559 10550 10540 10531 10522
10407 10420 10427 10437 10449 10460 10470 10477 10495 10515 10529 10542 10556 10567 10576 10579 10589 10597 10596 10595 10601 10604 10604 10600 10601 10607 10606 10600 10602 10598 10595 10593 10589 10584 10580 10576 10568 10561 10553 10544 10534 10525 10516 10507
10397 10408 10415 10427 10434 10439 10444 10481 10492 10502 10514 10529 10543 10554 10552 10565 10571 10573 10572 10580 10588 10589 10584 10585 10590 10590 10584 10588 10587 10582 10580 10578 10574 10570 10566 10561 10554 10547 10538 10529 10520 10511 10502 10493
10381 10392 10403 10413 10414 10412 10471 10455 10472 10486 10496 10510 10526 10534 10540 10546 10549 10554 10562 10569 10568 10566 10567 10572 10572 10570 10571 10572 10569 10566 10566 10563 10560 10556 10552 10546 10540 10532 10524 10516 10508 10499 10490 10482
10363 10372 10382 10392 10407 10435 10440 10453 10466 10475 10491 10499 10513 10519 10527 10531 10539 10544 10547 10545 10544 10549 10554 10554 10553 10554 10556 10555 10553 10553 10552 10549 10547 10544 10540 10533 10527 10520 10512 10505 10496 10487 10478 10469
10340 10350 10360 10379 10397 10421 10449 10447 10446 10450 10475 10489 10496 10505 10512 10517 10527 10527 10516 10522 10530 10534 10536 10538 10538 10539 10541 10540 10539 10539 10537 10535 10535 10532 10527 10522 10515 10509 10502 10494 10485 10476 10466 10456
10322 10337 10350 10377 10391 10418 10427 10428 10424 10440 10491 10472 10483 10490 10497 10505 10504 10483 10506 10514 10513 10518 10520 10521 10525 10527 10526 10525 10524 10524 10522 10522 10522 10519 10515 10510 10504 10498 10491 10483 10473 10463 10453 10443
10312 10321 10341 10362 10379 10402 10412 10411 10426 10456 10450 10449 10460 10468 10474 10474 10476 10487 10493 10494 10500 10502 10505 10507 10510 10510 10510 10510 10510 10510 10508 10509 10509 10506 10502 10498 10492 10485 10478 10470 10461 10452 10441 10429
10283 10303 10332 10350 10381 10391 10394 10398 10405 10413 10422 10432 10442 10448 10450 10459 10465 10471 10473 10480 10485 10487 10489 10492 10493 10494 10496 10496 10496 10496 10495 10495 10495 10493 10489 10484 10477 10471 10464 10457 10448 10438 10427 10416
10273 10287 10303 10330 10358 10369 10369 10372 10381 10394 10404 10414 10423 10430 10438 10442 10444 10451 10458 10463 10467 10470 10474 10477 10478 10479 10481 10482 10483 10481 10482 10481 10480 10478 10474 10469 10463 10457 10450 10443 10433 10423 10412 10400
10250 10259 10289 10319 10333 10346 10356 10366 10373 10381 10387 10398 10407 10416 10422 10427 10432 10437 10443 10448 10451 10455 10459 10463 10463 10465 10466 10468 10467 10467 10468 10467 10465 10462 10458 10454 10449 10442 10436 10428 10418 10408 10399 10387
10246 10267 10284 10325 10330 10335 10337 10341 10347 10360 10372 10382 10390 10401 10409 10414 10419 10424 10430 10434 10436 10439 10446 10448 10448 10451 10452 10454 10453 10453 10454 10453 10450 10447 10443 10439 10433 10426 10418 10411 10403 10393 10382 10370